C/2014 M1 ( PanSTARRS )

Japanese version
Home page
Updated on March 25, 2017

---------------------------------------------------------------------

* Profile

Discovery Date June 24, 2014
Magnitude 20.8 mag
Discoverer Pan-STARRS 1 telescope (Haleakala)

* Pictures

* Orbital Elements

Epoch 2015 Sept. 15.0 TT = JDT 2457280.5
T 2015 Aug. 26.51611 TT                                 MPCW
q   5.5766713            (2000.0)            P               Q
z  -0.0003865      Peri.  336.74381     -0.22817387     -0.93347431
 +/-0.0000011      Node   234.67523     -0.83152538     +0.03900378
e   1.0021555      Incl.  160.17559     -0.50646049     +0.35651706
From 83 observations 2014 June 24-2017 Mar. 7, mean residual 0".4.

* Magnitudes Graph

        m1 = 8.0 + 5 log d + 10.0 log r

---------------------------------------------------------------------

The orbital elements are published on M.P.E.C. 2017-E59.
The magnitudes graphs are made with Comet for Windows.

---------------------------------------------------------------------

Copyright(C) Seiichi Yoshida (comet@aerith.net). All rights reserved.